{"data":{"norad_id":57512,"epoch":"2026-05-24T18:46:07.580352Z","epoch_age_seconds":107964,"freshness":"FRESH","line1":"1 57512U 23113T   26144.78203218  .00001728  00000+0  72317-4 0  9999","line2":"2 57512  43.0034 280.5499 0002222 284.2754  75.7851 15.27576083155618","mean_motion":15.27576083,"eccentricity":0.0002222,"inclination_deg":43.0034,"raan_deg":280.5499,"arg_perigee_deg":284.2754,"mean_anomaly_deg":75.7851,"bstar":7.2317e-5,"rev_number":15561,"period_min":94.266990431795,"perigee_km":481.53626681514,"apogee_km":484.58538312856,"semimajor_km":6861.1978249718,"source":"CELESTRAK","updated_at":"2026-05-25T13:38:18.330484Z"}}